Location: Boiro
(42.6475°N, 8.8834°W)
Time: 07:07:29
(UTC+01:00)

FALCONSAT 3 - Visible Passes

Search period start: 27 January 2022 00:00
Search period end: 06 February 2022 00:00
Orbit: 430 x 434 km, 35.4° (Epoch: 26 January)

Date Brightness Start Highest point End Pass type
(mag) Time Alt. Az. Time Alt. Az. Time Alt. Az.
27 Jan ? 06:16:44 12° SE 06:16:44 12° SE 06:17:06 10° SE visible
27 Jan ? 07:50:11 10° SW 07:51:58 13° SSW 07:53:45 10° SSE visible
28 Jan ? 07:07:26 15° SSW 07:07:26 15° SSW 07:09:24 10° SSE visible
